Lefor, ND

2:57 AM MST on February 06, 2016 (GMT -0700)
Dickinson Municipal

Weather History for KDIK - December, 2011

Change the Weather History Date:

Wednesday, December 14, 2011

  Actual Average Record
Temperature  
Mean Temperature 23 °F 18 °F  
Max Temperature 27 °F 28 °F 62 °F (1998)
Min Temperature 18 °F 8 °F -35 °F (1901)
Degree Days  
Heating Degree Days 42 47  
Month to date heating degree days 640 634  
Since 1 July heating degree days 2398 2711  
Cooling Degree Days 0 0  
Month to date cooling degree days 0 0  
Year to date cooling degree days 358 419  
Moisture  
Dew Point 19 °F    
Average Humidity 87    
Maximum Humidity 100    
Minimum Humidity 74    
Precipitation  
Precipitation 0.00 in 0.00 in 0.30 in (1927)
Month to date precipitation 0.01 0.10  
Year to date precipitation 17.37 15.63  
Sea Level Pressure  
Sea Level Pressure 29.84 in    
Wind  
Wind Speed 15 mph (West)    
Max Wind Speed 31 mph    
Max Gust Speed 40 mph    
Visibility 6 miles    
Events      
T = Trace of Precipitation, MM = Missing Value Source: NWS Daily Summary

Daily Weather History Graph

Daily Weather History Graph

Search for Another Location

Airport or City:

Trip Planner

Search our weather history database for the weather conditions in past years. The results will help you decide how hot, cold, wet, or windy it might be!

Date:

Astronomy

Dec. 14, 2011 Rise Set
Actual Time 7:28 AM MST 4:03 PM MST
Civil Twilight 6:53 AM MST 4:38 PM MST
Nautical Twilight 6:14 AM MST 5:16 PM MST
Astronomical Twilight 5:37 AM MST 5:53 PM MST
Moon 8:37 PM MST (12/14) 10:03 AM MST (12/14)
Length of Visible Light 9h 45m
Length of Day
8h 34m
Waning Gibbous, 83% of the Moon is Illuminated
Dec 14
Waning Gibbous
Dec 17
Last Quarter
Dec 24
New
Dec 31
First Quarter
Jan 9
Full

Hourly Weather History & Observations

Time (MST) Temp. Windchill Dew Point Humidity Pressure Visibility Wind Dir Wind Speed Gust Speed Precip Events Conditions
12:56 AM 21.9 °F 9.8 °F 19.9 °F 92% 29.88 in 3.0 mi SSW 12.7 mph - N/A   Overcast
1:37 AM 21.2 °F 10.9 °F 19.4 °F 93% 29.76 in 2.5 mi WSW 9.2 mph - N/A   Overcast
2:56 AM 21.9 °F 11.7 °F 19.9 °F 92% 29.86 in 2.5 mi WSW 9.2 mph - N/A   Overcast
3:43 AM 21.2 °F 11.7 °F 19.4 °F 93% 29.73 in 3.0 mi SW 8.1 mph - N/A   Overcast
3:54 AM 21.2 °F 11.7 °F 19.4 °F 93% 29.72 in 2.0 mi SSW 8.1 mph - N/A   Overcast
3:56 AM 21.9 °F 14.5 °F 19.9 °F 92% 29.83 in 1.8 mi SW 5.8 mph - N/A   Overcast
4:25 AM 21.2 °F 12.6 °F 19.4 °F 93% 29.73 in 3.0 mi SW 6.9 mph - N/A   Overcast
4:56 AM 21.9 °F 14.5 °F 19.0 °F 89% 29.83 in 5.0 mi SW 5.8 mph - N/A   Overcast
5:56 AM 21.0 °F 10.6 °F 19.0 °F 92% 29.82 in 3.0 mi WSW 9.2 mph - N/A   Overcast
6:04 AM 21.2 °F 10.1 °F 19.4 °F 93% 29.71 in 2.0 mi West 10.4 mph - N/A   Overcast
6:13 AM 21.2 °F 10.9 °F 17.6 °F 86% 29.71 in 1.0 mi WSW 9.2 mph - N/A   Overcast
6:56 AM 19.9 °F 8.6 °F 18.0 °F 92% 29.82 in 1.0 mi WSW 10.4 mph - N/A   Mist
7:05 AM 19.4 °F 7.9 °F 17.6 °F 93% 29.70 in 0.8 mi WSW 10.4 mph - N/A   Mist
7:56 AM 19.0 °F 9.0 °F 16.0 °F 88% 29.82 in 0.8 mi SW 8.1 mph - N/A   Overcast
8:25 AM 17.6 °F 6.4 °F 15.8 °F 93% 29.71 in 1.5 mi WSW 9.2 mph - N/A   Overcast
8:46 AM 17.6 °F 6.4 °F 15.8 °F 93% 29.72 in 2.5 mi WSW 9.2 mph - N/A   Overcast
8:56 AM 18.0 °F 6.9 °F 15.1 °F 88% 29.83 in 4.0 mi WSW 9.2 mph - N/A   Overcast
9:56 AM 19.9 °F 8.6 °F 17.1 °F 89% 29.83 in 8.0 mi West 10.4 mph - N/A   Scattered Clouds
10:56 AM 23.0 °F 13.1 °F 19.9 °F 88% 29.80 in 10.0 mi West 9.2 mph - N/A   Clear
11:56 AM 26.1 °F 12.7 °F 21.9 °F 84% 29.79 in 10.0 mi West 18.4 mph - N/A   Clear
12:56 PM 26.1 °F 13.6 °F 21.9 °F 84% 29.79 in 10.0 mi WNW 16.1 mph - N/A   Clear
1:56 PM 27.0 °F 14.3 °F 21.9 °F 81% 29.81 in 10.0 mi WNW 17.3 mph 23.0 mph N/A   Partly Cloudy
2:09 PM 26.6 °F 13.1 °F 21.2 °F 80% 29.72 in 10.0 mi WNW 19.6 mph - N/A   Mostly Cloudy
2:36 PM 24.8 °F 12.4 °F 19.4 °F 80% 29.73 in 10.0 mi WNW 15.0 mph - N/A   Scattered Clouds
2:56 PM 24.1 °F 10.6 °F 19.9 °F 84% 29.85 in 10.0 mi WNW 17.3 mph - N/A   Clear
3:12 PM 24.8 °F 10.7 °F 19.4 °F 80% 29.76 in 10.0 mi WNW 19.6 mph 28.8 mph N/A   Mostly Cloudy
3:56 PM 24.1 °F 9.0 °F 19.0 °F 81% 29.90 in 10.0 mi NW 21.9 mph 31.1 mph N/A   Overcast
4:43 PM 24.8 °F 10.0 °F 19.4 °F 80% 29.82 in 10.0 mi WNW 21.9 mph - N/A   Mostly Cloudy
5:56 PM 25.0 °F 10.9 °F 19.9 °F 81% 29.97 in 10.0 mi NW 19.6 mph 29.9 mph N/A   Overcast
7:56 PM 24.1 °F 7.1 °F 18.0 °F 77% 30.04 in 10.0 mi NW 28.8 mph 34.5 mph N/A   Overcast
8:56 PM 24.1 °F 8.7 °F 17.1 °F 75% 30.06 in 10.0 mi NW 23.0 mph 29.9 mph N/A   Overcast
9:56 PM 21.0 °F 8.1 °F 16.0 °F 81% 30.07 in 10.0 mi NW 13.8 mph - N/A   Mostly Cloudy
10:03 PM 21.2 °F 7.8 °F 15.8 °F 80% 29.96 in 10.0 mi NW 15.0 mph - N/A   Scattered Clouds
10:13 PM 21.2 °F 7.3 °F 15.8 °F 80% 29.96 in 10.0 mi NW 16.1 mph - N/A   Mostly Cloudy
10:56 PM 23.0 °F 7.6 °F 17.1 °F 78% 30.08 in 10.0 mi NW 21.9 mph 33.4 mph N/A   Overcast
11:56 PM 23.0 °F 6.3 °F 16.0 °F 74% 30.09 in 10.0 mi NW 26.5 mph 32.2 mph N/A   Overcast